| time (UTC) | temp F | wind direction | speed knots | gust knots | rain 1hr in | rain 24hr in | rain mn in | humidity % | barometer mb |
| 20260505124111 | 51 | 174 | 0.0 | 0.0 | 0.00 | 0.35 | 0.33 | 93 | 1008.9 |
| 20260505122110 | 51 | 170 | 0.0 | 0.0 | 0.00 | 0.35 | 0.33 | 93 | 1009.0 |
| 20260505121110 | 51 | 170 | 0.0 | 0.0 | 0.00 | 0.35 | 0.33 | 93 | 1009.0 |
| 20260505111110 | 50 | 200 | 0.0 | 0.0 | 0.00 | 0.35 | 0.33 | 94 | 1009.3 |
| 20260505095109 | 49 | 282 | 0.0 | 0.9 | 0.00 | 0.35 | 0.33 | 94 | 1009.5 |
| 20260505094109 | 49 | 188 | 0.0 | 0.0 | 0.00 | 0.35 | 0.33 | 94 | 1009.6 |
| 20260505091113 | 48 | 171 | 0.0 | 0.0 | 0.02 | 0.35 | 0.33 | 94 | 1009.5 |
| 20260505085113 | 48 | 167 | 0.0 | 0.0 | 0.02 | 0.35 | 0.33 | 94 | 1009.5 |
| 20260505082113 | 47 | 165 | 0.0 | 0.0 | 0.02 | 0.35 | 0.32 | 94 | 1009.7 |
| 20260505081113 | 47 | 161 | 0.0 | 0.0 | 0.02 | 0.34 | 0.31 | 94 | 1009.7 |
| 20260505073112 | 47 | 188 | 0.0 | 0.0 | 0.01 | 0.33 | 0.31 | 94 | 1009.6 |
| 20260505072112 | 47 | 188 | 0.0 | 0.9 | 0.01 | 0.33 | 0.31 | 94 | 1009.6 |
| 20260505065112 | 46 | 228 | 0.0 | 0.0 | 0.02 | 0.32 | 0.30 | 94 | 1009.5 |
| 20260505064112 | 46 | 227 | 0.0 | 0.9 | 0.02 | 0.32 | 0.30 | 94 | 1009.5 |
| 20260505063112 | 46 | 233 | 0.0 | 0.0 | 0.02 | 0.32 | 0.30 | 94 | 1009.6 |
| 20260505061111 | 46 | 196 | 0.0 | 0.0 | 0.02 | 0.31 | 0.29 | 94 | 1009.6 |
| 20260505060112 | 47 | 231 | 0.0 | 0.9 | 0.02 | 0.31 | 0.29 | 94 | 1009.6 |
| 20260505053111 | 47 | 238 | 0.0 | 0.0 | 0.01 | 0.30 | 0.28 | 94 | 1009.7 |
| 20260505052111 | 47 | 258 | 0.0 | 0.0 | 0.02 | 0.30 | 0.28 | 93 | 1009.6 |
| 20260505051111 | 47 | 273 | 0.0 | 0.0 | 0.02 | 0.30 | 0.28 | 93 | 1009.6 |
| 20260505031110 | 48 | 165 | 0.0 | 0.9 | 0.09 | 0.25 | 0.23 | 93 | 1009.7 |
| 20260505023110 | 49 | 261 | 0.0 | 0.9 | 0.11 | 0.20 | 0.17 | 92 | 1009.8 |
| 20260505021109 | 49 | 214 | 0.0 | 0.0 | 0.07 | 0.16 | 0.13 | 92 | 1009.8 |
| 20260505020109 | 49 | 226 | 0.0 | 0.0 | 0.05 | 0.13 | 0.10 | 92 | 1009.8 |
| 20260505013114 | 50 | 198 | 0.0 | 0.0 | 0.01 | 0.09 | 0.06 | 92 | 1010.0 |
| 20260505011114 | 50 | 250 | 0.0 | 0.9 | 0.01 | 0.09 | 0.06 | 91 | 1010.0 |
| 20260505005113 | 51 | 223 | 0.0 | 0.0 | 0.01 | 0.08 | 0.06 | 91 | 1010.2 |
| 20260505002113 | 51 | 224 | 0.0 | 0.0 | 0.01 | 0.08 | 0.06 | 91 | 1010.5 |
| 20260504235113 | 52 | 241 | 0.0 | 0.0 | 0.02 | 0.07 | 0.05 | 90 | 1010.6 |
| 20260504233112 | 53 | 355 | 0.0 | 0.0 | 0.05 | 0.07 | 0.05 | 90 | 1010.6 |
| 20260504230113 | 54 | 355 | 0.0 | 0.0 | 0.04 | 0.06 | 0.04 | 88 | 1011.0 |
| 20260504225112 | 55 | 355 | 0.0 | 0.0 | 0.03 | 0.06 | 0.03 | 87 | 1011.0 |
| 20260504224112 | 55 | 355 | 0.0 | 0.0 | 0.02 | 0.04 | 0.02 | 86 | 1011.1 |
| 20260504222112 | 56 | 355 | 0.0 | 0.0 | 0.00 | 0.02 | 0.00 | 82 | 1011.3 |
| 20260504213111 | 56 | 350 | 0.0 | 0.0 | 0.00 | 0.02 | 0.02 | 83 | 1011.8 |
| 20260504211111 | 56 | 169 | 0.0 | 0.0 | 0.00 | 0.02 | 0.02 | 82 | 1011.3 |
| 20260504210111 | 56 | 169 | 0.0 | 0.0 | 0.00 | 0.02 | 0.02 | 82 | 1011.3 |
| 20260504205111 | 56 | 169 | 0.0 | 0.0 | 0.00 | 0.02 | 0.02 | 82 | 1011.2 |
| 20260504204111 | 57 | 169 | 0.0 | 0.0 | 0.00 | 0.02 | 0.02 | 82 | 1011.3 |
| 20260504203111 | 57 | 169 | 0.0 | 0.0 | 0.00 | 0.02 | 0.02 | 81 | 1011.1 |
| 20260504202111 | 57 | 169 | 0.0 | 0.0 | 0.00 | 0.02 | 0.02 | 81 | 1011.1 |
| 20260504200110 | 58 | 169 | 0.0 | 0.0 | 0.00 | 0.02 | 0.02 | 79 | 1011.2 |
| 20260504195110 | 58 | 169 | 0.0 | 0.0 | 0.00 | 0.02 | 0.02 | 79 | 1011.2 |
| 20260504194111 | 58 | 169 | 0.0 | 0.0 | 0.00 | 0.02 | 0.02 | 78 | 1011.3 |
| 20260504193110 | 59 | 169 | 0.0 | 0.0 | 0.00 | 0.02 | 0.02 | 78 | 1011.2 |
| 20260504185110 | 60 | 169 | 0.0 | 0.0 | 0.00 | 0.02 | 0.02 | 76 | 1011.1 |
| 20260504184109 | 60 | 164 | 0.0 | 0.0 | 0.00 | 0.02 | 0.02 | 76 | 1011.1 |
| 20260504182110 | 61 | 159 | 0.0 | 0.0 | 0.00 | 0.02 | 0.02 | 75 | 1011.0 |
| 20260504181109 | 61 | 159 | 0.0 | 0.0 | 0.00 | 0.02 | 0.02 | 74 | 1010.8 |
| 20260504180109 | 62 | 159 | 0.0 | 0.0 | 0.00 | 0.02 | 0.02 | 74 | 1010.8 |
| 20260504175109 | 62 | 149 | 0.0 | 0.0 | 0.00 | 0.02 | 0.02 | 73 | 1010.7 |
| 20260504174109 | 62 | 144 | 0.0 | 0.0 | 0.00 | 0.02 | 0.02 | 73 | 1010.7 |
| 20260504173109 | 62 | 144 | 0.0 | 0.0 | 0.00 | 0.02 | 0.02 | 73 | 1010.7 |
| 20260504172114 | 63 | 250 | 0.0 | 0.0 | 0.00 | 0.02 | 0.02 | 73 | 1010.7 |
| 20260504151112 | 64 | 170 | 0.0 | 0.0 | 0.00 | 0.02 | 0.02 | 79 | 1010.8 |